This is the latest recevied weather packets stored in our database for station/object OE9FWV-10. If no packets are shown the sender has not sent any weather packets the latest 10 day(s).
| Time | Temp. | Humidity | Pressure | Rain* | Wind** | Luminosity | Snow |
|---|---|---|---|---|---|---|---|
| 1777829278 | 29.44° C | 22% | 1016.4 hPa | - | - | - | - |
| 1777828378 | 30° C | 22% | 1016.1 hPa | - | - | - | - |
| 1777827478 | 30° C | 22% | 1016.1 hPa | - | - | - | - |
| 1777826578 | 30° C | 21% | 1016.1 hPa | - | - | - | - |
| 1777825678 | 30.56° C | 21% | 1016.1 hPa | - | - | - | - |
| 1777824778 | 30.56° C | 21% | 1015.9 hPa | - | - | - | - |
| 1777823878 | 30.56° C | 21% | 1015.8 hPa | - | - | - | - |
| 1777822978 | 31.11° C | 21% | 1015.7 hPa | - | - | - | - |
| 1777822078 | 31.11° C | 21% | 1015.7 hPa | - | - | - | - |
| 1777821178 | 31.11° C | 20% | 1015.7 hPa | - | - | - | - |
| 1777820277 | 31.67° C | 19% | 1015.8 hPa | - | - | - | - |
| 1777819377 | 32.22° C | 19% | 1015.8 hPa | - | - | - | - |
| 1777818477 | 31.67° C | 19% | 1016 hPa | - | - | - | - |
| 1777817577 | 31.67° C | 19% | 1016.1 hPa | - | - | - | - |
| 1777816677 | 32.78° C | 18% | 1016.1 hPa | - | - | - | - |
| 1777815777 | 32.78° C | 17% | 1016.1 hPa | - | - | - | - |
| 1777814877 | 35.56° C | 15% | 1016.2 hPa | - | - | - | - |
| 1777813977 | 37.22° C | 14% | 1016.4 hPa | - | - | - | - |
| 1777813077 | 36.11° C | 15% | 1016.6 hPa | - | - | - | - |
| 1777812177 | 36.67° C | 15% | 1016.7 hPa | - | - | - | - |
| 1777811277 | 38.89° C | 13% | 1016.8 hPa | - | - | - | - |
| 1777810377 | 38.33° C | 14% | 1016.9 hPa | - | - | - | - |
| 1777809476 | 37.22° C | 15% | 1017.1 hPa | - | - | - | - |
| 1777808576 | 36.11° C | 15% | 1017.2 hPa | - | - | - | - |
| 1777807676 | 35.56° C | 16% | 1017.4 hPa | - | - | - | - |
* Rain since midnight (hover to see other rain measurements)
** Current wind speed in m/s (hover to see current wind gust speed)